EW3770 Weather Reports


Display with metric or nautical units.
time (UTC)temp
F
wind
direction
speed
MPH
gust
MPH
rain 1hr
in
rain 24hr
in
rain mn
in
humidity
%
barometer
mb
20211020135004 40 137 2.0 4.0 0.00 0.04 0.00 82 1022.1
20211020134004 41 145 1.0 5.0 0.00 0.04 0.00 81 1022.1
20211020133004 41 142 1.0 5.0 0.00 0.04 0.00 80 1022.0
20211020132004 42 151 1.0 4.0 0.00 0.05 0.00 78 1021.6
20211020131004 42 169 1.0 4.0 0.00 0.07 0.00 78 1021.6
20211020130004 41 179 3.0 8.0 0.00 0.08 0.00 80 1021.4
20211020125004 41 178 3.0 9.0 0.00 0.10 0.00 82 1021.2
20211020124004 40 166 2.0 6.0 0.00 0.11 0.00 84 1021.2
20211020123005 40 148 2.0 7.0 0.00 0.12 0.00 86 1021.1
20211020122004 40 162 2.0 9.0 0.00 0.15 0.00 86 1021.0
20211020121003 40 179 2.0 6.0 0.00 0.17 0.00 85 1021.1
20211020120004 39 190 3.0 7.0 0.00 0.19 0.00 85 1020.9
20211020115004 39 192 1.0 6.0 0.00 0.21 0.00 85 1021.1
20211020114004 39 160 1.0 4.0 0.00 0.22 0.00 85 1021.2
20211020113004 39 140 1.0 4.0 0.00 0.24 0.00 85 1021.3
20211020112004 40 187 2.0 7.0 0.00 0.25 0.00 85 1021.3
20211020111004 40 154 2.0 4.0 0.00 0.25 0.00 85 1021.3
20211020110004 40 141 1.0 4.0 0.00 0.26 0.00 86 1021.5
20211020105004 39 151 1.0 4.0 0.00 0.28 0.00 87 1021.5
20211020104004 39 163 2.0 5.0 0.00 0.29 0.00 87 1021.7
20211020103004 39 170 1.0 5.0 0.00 0.31 0.00 87 1021.7
20211020102004 38 162 1.0 5.0 0.00 0.33 0.00 87 1021.7
20211020101003 39 164 1.0 4.0 0.00 0.34 0.00 87 1021.8
20211020100004 39 173 0.0 4.0 0.00 0.36 0.00 87 1021.7
20211020095004 39 160 0.0 2.0 0.00 0.39 0.00 87 1021.7
20211020094003 39 163 1.0 5.0 0.00 0.40 0.00 88 1021.7
20211020093003 39 173 1.0 4.0 0.00 0.41 0.00 88 1021.8
20211020092003 39 166 1.0 5.0 0.00 0.41 0.00 88 1021.8
20211020091004 38 137 1.0 5.0 0.00 0.41 0.00 88 1021.8
20211020090003 39 161 0.0 2.0 0.00 0.42 0.00 87 1021.7
20211020085004 39 165 1.0 4.0 0.00 0.42 0.00 87 1021.7
20211020084004 39 199 1.0 3.0 0.00 0.42 0.00 88 1021.7
20211020083004 38 193 1.0 5.0 0.00 0.42 0.00 88 1021.6
20211020082004 38 170 1.0 2.0 0.00 0.43 0.00 89 1021.6
20211020081004 38 169 2.0 4.0 0.00 0.45 0.00 89 1021.6
20211020080004 38 168 1.0 4.0 0.00 0.46 0.00 88 1021.6
20211020075004 39 167 1.0 3.0 0.00 0.47 0.00 88 1021.4
20211020074004 39 167 1.0 3.0 0.00 0.48 0.00 89 1021.4
20211020073004 39 167 1.0 3.0 0.00 0.48 0.00 89 1021.4
20211020072003 39 169 1.0 5.0 0.00 0.48 0.00 89 1021.2
20211020071004 39 202 0.0 3.0 0.00 0.48 0.00 89 1021.3
20211020070004 39 205 1.0 3.0 0.00 0.48 0.00 89 1021.3
20211020065004 39 176 1.0 4.0 0.00 0.48 0.00 89 1021.2
20211020064003 39 170 2.0 6.0 0.00 0.48 0.00 89 1021.2
20211020063004 39 172 2.0 4.0 0.00 0.48 0.00 89 1021.2
20211020062004 39 180 2.0 4.0 0.00 0.48 0.00 89 1021.2
20211020061004 39 192 2.0 4.0 0.00 0.48 0.00 89 1021.2
20211020060005 39 188 2.0 5.0 0.00 0.49 0.00 89 1021.2
20211020055003 39 171 1.0 5.0 0.01 0.49 0.49 89 1021.1
20211020054003 40 180 1.0 4.0 0.01 0.49 0.49 89 1021.2
20211020053004 40 190 1.0 5.0 0.01 0.49 0.49 90 1021.3
20211020052004 40 141 1.0 5.0 0.01 0.49 0.49 90 1021.2
20211020051003 39 138 1.0 4.0 0.01 0.49 0.49 90 1021.3
20211020050004 39 156 1.0 4.0 0.01 0.49 0.49 89 1021.3
20211020045004 39 148 0.0 5.0 0.00 0.48 0.48 89 1021.3
20211020044005 39 147 1.0 3.0 0.00 0.48 0.48 89 1021.3
20211020043003 39 146 0.0 2.0 0.00 0.48 0.48 88 1021.3
20211020042004 40 146 0.0 3.0 0.00 0.48 0.48 88 1021.3
20211020041004 40 146 0.0 3.0 0.00 0.48 0.48 88 1021.3
20211020040004 40 147 1.0 5.0 0.00 0.48 0.48 88 1021.2
20211020035004 40 149 1.0 6.0 0.00 0.48 0.48 88 1021.1
20211020034004 40 155 1.0 5.0 0.00 0.48 0.48 88 1021.0
20211020033004 40 142 1.0 4.0 0.00 0.48 0.48 88 1021.0
20211020032004 40 150 1.0 7.0 0.00 0.48 0.48 88 1021.0
20211020031004 40 103 1.0 3.0 0.00 0.48 0.48 88 1020.8
20211020030003 40 105 1.0 3.0 0.00 0.48 0.48 88 1020.8
20211020025004 40 138 0.0 3.0 0.00 0.48 0.48 88 1020.6
20211020024004 40 137 1.0 4.0 0.00 0.48 0.48 88 1020.7
20211020023004 40 150 1.0 4.0 0.00 0.48 0.48 87 1020.7
20211020022004 40 179 0.0 3.0 0.00 0.48 0.48 87 1020.7
20211020021004 40 184 0.0 1.0 0.00 0.48 0.48 87 1020.7
20211020020004 40 184 0.0 1.0 0.00 0.48 0.48 85 1020.6
20211020015004 40 184 0.0 1.0 0.00 0.48 0.48 85 1020.4
20211020014004 41 183 0.0 2.0 0.00 0.48 0.48 84 1020.5
20211020013005 41 181 0.0 1.0 0.00 0.48 0.48 84 1020.4
20211020012004 42 187 0.0 2.0 0.00 0.48 0.48 84 1020.2
20211020011004 42 171 1.0 4.0 0.00 0.48 0.48 83 1020.1
20211020010005 42 180 1.0 4.0 0.00 0.48 0.48 83 1020.1
20211020005004 43 177 1.0 4.0 0.00 0.48 0.48 82 1019.9
20211020004003 43 170 1.0 4.0 0.00 0.48 0.48 80 1019.8
20211020003004 44 175 1.0 6.0 0.00 0.48 0.48 80 1019.8
20211020002004 44 157 1.0 4.0 0.00 0.48 0.48 80 1019.8
20211020001004 44 176 1.0 4.0 0.00 0.48 0.48 80 1019.9
20211020000005 45 138 1.0 3.0 0.00 0.48 0.48 80 1019.8
20211019235003 45 171 2.0 7.0 0.00 0.48 0.48 80 1019.8
20211019234004 45 194 2.0 6.0 0.00 0.48 0.48 79 1019.8
20211019233004 45 163 1.0 6.0 0.00 0.48 0.48 80 1019.7
20211019232004 45 144 2.0 4.0 0.00 0.49 0.48 80 1019.7
20211019231003 45 157 2.0 6.0 0.00 0.49 0.48 80 1019.7
20211019230004 45 166 2.0 7.0 0.00 0.49 0.48 81 1019.7
20211019225004 45 146 2.0 7.0 0.00 0.49 0.48 82 1019.7
20211019224004 45 147 3.0 9.0 0.00 0.50 0.48 82 1019.5
20211019223004 45 156 2.0 8.0 0.00 0.50 0.48 83 1019.5
20211019222004 44 159 2.0 6.0 0.00 0.51 0.48 83 1019.4
20211019221004 44 142 2.0 9.0 0.00 0.52 0.48 84 1019.4
20211019220004 44 175 1.0 6.0 0.00 0.54 0.48 85 1019.3
20211019215004 44 155 2.0 5.0 0.00 0.57 0.48 85 1019.1
20211019214004 44 154 2.0 8.0 0.00 0.59 0.48 85 1019.0
20211019213004 44 161 2.0 6.0 0.00 0.59 0.48 85 1018.9
20211019212004 44 151 2.0 8.0 0.00 0.59 0.48 85 1018.8
20211019211004 44 145 1.0 5.0 0.00 0.59 0.48 86 1018.7
20211019210004 43 138 2.0 8.0 0.00 0.59 0.48 86 1018.6
20211019205004 43 168 2.0 6.0 0.00 0.59 0.48 87 1018.6
20211019204004 43 148 2.0 8.0 0.00 0.59 0.48 88 1018.5
20211019203004 43 149 3.0 6.0 0.00 0.59 0.48 88 1018.5
20211019202003 43 148 2.0 8.0 0.00 0.59 0.48 89 1018.5
20211019201004 43 136 2.0 8.0 0.00 0.59 0.48 89 1018.5
20211019200005 43 145 2.0 9.0 0.00 0.59 0.48 90 1018.5
20211019195004 43 143 2.0 10.0 0.00 0.59 0.48 91 1018.4
20211019194004 42 138 1.0 7.0 0.00 0.59 0.48 92 1018.3
20211019193003 42 155 2.0 6.0 0.00 0.59 0.48 92 1018.3
20211019192005 42 153 3.0 9.0 0.00 0.59 0.48 91 1018.3
20211019191004 42 160 2.0 7.0 0.00 0.59 0.48 92 1018.3
20211019190004 42 142 2.0 8.0 0.00 0.59 0.48 93 1018.3
20211019185003 41 153 2.0 8.0 0.00 0.59 0.48 93 1018.2
20211019184003 41 159 1.0 8.0 0.00 0.59 0.48 93 1018.3
20211019183003 41 143 2.0 8.0 0.00 0.59 0.48 93 1018.2
20211019182004 41 156 1.0 7.0 0.00 0.59 0.48 94 1018.1
20211019181004 40 147 2.0 6.0 0.00 0.59 0.48 94 1018.1
20211019180004 40 131 1.0 4.0 0.00 0.59 0.48 94 1018.0
20211019175003 40 153 1.0 6.0 0.00 0.59 0.48 94 1017.8
20211019174004 40 164 1.0 6.0 0.00 0.59 0.48 95 1017.8
20211019173004 39 166 2.0 5.0 0.00 0.59 0.48 95 1017.7
20211019172004 39 175 1.0 4.0 0.00 0.59 0.48 95 1017.7
20211019171003 39 150 1.0 5.0 0.00 0.59 0.48 95 1017.5
20211019170004 39 175 1.0 4.0 0.00 0.59 0.48 94 1017.5
20211019165003 38 196 1.0 4.0 0.00 0.59 0.48 95 1017.4
20211019164004 38 175 1.0 4.0 0.00 0.59 0.48 94 1017.2
20211019163004 38 202 2.0 6.0 0.00 0.59 0.48 94 1017.0
20211019162003 38 149 1.0 5.0 0.00 0.59 0.48 94 1016.7
20211019161004 38 167 2.0 6.0 0.00 0.59 0.48 94 1016.5
20211019160004 38 208 1.0 6.0 0.00 0.59 0.48 94 1016.4
20211019155004 38 170 1.0 3.0 0.01 0.59 0.48 94 1016.3
20211019154004 38 153 1.0 5.0 0.01 0.59 0.48 94 1016.1
20211019153004 38 149 1.0 5.0 0.01 0.59 0.48 94 1015.9
20211019152004 38 150 1.0 4.0 0.01 0.59 0.48 94 1015.7
20211019151004 38 157 1.0 4.0 0.02 0.59 0.48 94 1015.6
20211019150005 38 148 0.0 4.0 0.02 0.59 0.48 94 1015.4
20211019145004 38 131 0.0 2.0 0.01 0.58 0.47 94 1015.0
20211019144004 38 130 0.0 3.0 0.02 0.58 0.47 94 1014.8
20211019143004 38 130 0.0 2.0 0.02 0.58 0.47 94 1014.6
20211019142004 38 130 0.0 2.0 0.03 0.58 0.47 94 1014.4
20211019141004 38 0 0.0 0.0 0.03 0.57 0.46 94 1014.3